QPF
0.01 0.01 0.01 0.01 0.02 0.03 0.03 0.04 0.03 0.03 0.03 0.03 0.03 0.02 0.01 0.01 0.01 0.00 0.01 0.01 0.01 0.01 0.01 0.01 0.01 0.01 0.01 0.01 0.04 0.12 0.07 0.05 0.03 0.03 0.03 0.03 0.03 0.03
0.01 0.01 0.00 0.01 0.01 0.02 0.02 0.03 0.03 0.02 0.02 0.02 0.02 0.01 0.01 0.00 0.00 0.01 0.01 0.01 0.01 0.01 0.01 0.01 0.02 0.02 0.02 0.01 0.02 0.03 0.03 0.02 0.03 0.05 0.07 0.06 0.04 0.03
0.01 0.01 0.01 0.01 0.01 0.02 0.02 0.02 0.02 0.01 0.02 0.02 0.02 0.01 0.01 0.01 0.01 0.01 0.01 0.01 0.01 0.01 0.01 0.02 0.02 0.02 0.02 0.01 0.01 0.01 0.02 0.01 0.01 0.02 0.04 0.05 0.06 0.06
0.02 0.02 0.02 0.01 0.01 0.01 0.02 0.01 0.02 0.02 0.01 0.01 0.01 0.01 0.01 0.01 0.01 0.01 0.01 0.00 0.01 0.01 0.00 0.01 0.01 0.02 0.02 0.01 0.01 0.01 0.01 0.00 0.00 0.01 0.01 0.01 0.02 0.03
0.01 0.01 0.01 0.01 0.01 0.01 0.01 0.02 0.02 0.02 0.01 0.01 0.01 0.01 0.01 0.01 0.01 0.01 0.00 0.00 0.01 0.01 0.01 0.01 0.01 0.01 0.01 0.01 0.01 0.01 0.01 0.01 0.01 0.01 0.01 0.01 0.01 0.01
0.01 0.01 0.01 0.01 0.01 0.01 0.01 0.02 0.03 0.03 0.02 0.01 0.01 0.01 0.01 0.01 0.01 0.01 0.00 0.00 0.00 0.00 0.01 0.01 0.00 0.00 0.01 0.01 0.01 0.01 0.01 0.01 0.01 0.01 0.01 0.01 0.01 0.01
0.01 0.01 0.02 0.02 0.01 0.01 0.01 0.01 0.02 0.03 0.03 0.02 0.02 0.01 0.01 0.02 0.01 0.01 0.00 0.00 0.00 0.00 0.00 0.00 0.00 0.00 0.00 0.00 0.01 0.00 0.00 0.00 0.00 0.00 0.01 0.01 0.01 0.00
0.01 0.01 0.02 0.02 0.02 0.02 0.01 0.01 0.02 0.02 0.03 0.03 0.03 0.02 0.03 0.03 0.03 0.02 0.01 0.01 0.00 0.00 0.00 0.00 0.00 0.00 0.00 0.00 0.00 0.00 0.00 0.00 0.01 0.00 0.00 0.00 0.00 0.00
0.00 0.01 0.01 0.01 0.01 0.01 0.01 0.01 0.01 0.02 0.03 0.02 0.03 0.02 0.02 0.02 0.02 0.01 0.01 0.01 0.00 0.00 0.00 0.00 0.00 0.00 0.00 0.00 0.00 0.00 0.00 0.00 0.00 0.00 0.01 0.01 0.01 0.01
0.01 0.00 0.01 0.01 0.01 0.01 0.01 0.00 0.00 0.01 0.01 0.01 0.01 0.01 0.01 0.01 0.01 0.01 0.01 0.01 0.01 0.00 0.01 0.01 0.00 0.00 0.00 0.00 0.00 0.00 0.00 0.00 0.00 0.00 0.00 0.01 0.01 0.01
0.01 0.01 0.01 0.01 0.01 0.01 0.01 0.01 0.01 0.01 0.01 0.01 0.01 0.02 0.02 0.02 0.01 0.01 0.01 0.01 0.01 0.00 0.00 0.00 0.00 0.00 0.00 0.00 0.00 0.00 0.00 0.00 0.00 0.00 0.00 0.00 0.01 0.00
0.01 0.01 0.01 0.01 0.02 0.02 0.01 0.01 0.00 0.00 0.01 0.01 0.01 0.01 0.01 0.01 0.02 0.01 0.01 0.01 0.01 0.00 0.00 0.00 0.00 0.00 0.00 0.00 0.00 0.00 0.00 0.00 0.00 0.00 0.00 0.00 0.01 0.00
0.01 0.01 0.01 0.01 0.01 0.01 0.01 0.01 0.00 0.00 0.00 0.00 0.00 0.00 0.00 0.00 0.01 0.01 0.01 0.01 0.00 0.00 0.00 0.00 0.00 0.00 0.00 0.00 0.00 0.00 0.00 0.00 0.00 0.00 0.01 0.01 0.01 0.01
0.00 0.00 0.00 0.00 0.00 0.00 0.00 0.00 0.00 0.00 0.00 0.00 0.00 0.00 0.00 0.00 0.01 0.01 0.01 0.00 0.00 0.00 0.00 0.01 0.01 0.01 0.01 0.01 0.00 0.00 0.00 0.00 0.00 0.00 0.00 0.01 0.01 0.01
0.00 0.00 0.00 0.00 0.00 0.00 0.00 0.00 0.00 0.00 0.00 0.00 0.00 0.00 0.00 0.00 0.00 0.00 0.00 0.00 0.00 0.00 0.00 0.01 0.01 0.01 0.01 0.01 0.01 0.01 0.00 0.00 0.00 0.00 0.00 0.00 0.00 0.00
0.01 0.01 0.00 0.00 0.00 0.00 0.00 0.00 0.00 0.00 0.00 0.00 0.00 0.00 0.00 0.00 0.00 0.00 0.00 0.00 0.00 0.00 0.00 0.00 0.01 0.02 0.02 0.02 0.02 0.01 0.01 0.01 0.01 0.01 0.01 0.01 0.00 0.00
0.01 0.01 0.00 0.00 0.00 0.00 0.00 0.00 0.00 0.00 0.00 0.00 0.00 0.00 0.00 0.00 0.00 0.00 0.00 0.00 0.00 0.00 0.00 0.01 0.01 0.01 0.01 0.01 0.02 0.02 0.02 0.03 0.02 0.02 0.02 0.02 0.01 0.01
0.01 0.00 0.00 0.00 0.00 0.00 0.00 0.00 0.00 0.00 0.00 0.00 0.00 0.00 0.00 0.00 0.00 0.00 0.00 0.00 0.00 0.00 0.00 0.01 0.01 0.00 0.01 0.01 0.01 0.01 0.01 0.02 0.02 0.02 0.02 0.02 0.02 0.02
0.00 0.00 0.00 0.00 0.00 0.00 0.00 0.00 0.00 0.00 0.01 0.01 0.00 0.00 0.00 0.00 0.00 0.00 0.00 0.00 0.00 0.00 0.01 0.01 0.00 0.01 0.01 0.01 0.01 0.01 0.01 0.01 0.02 0.02 0.02 0.01 0.01 0.01
0.01 0.01 0.01 0.01 0.01 0.01 0.01 0.01 0.01 0.01 0.01 0.01 0.01 0.01 0.02 0.02 0.01 0.01 0.01 0.01 0.01 0.01 0.01 0.01 0.01 0.01 0.01 0.01 0.01 0.01 0.01 0.01 0.01 0.01 0.01 0.01 0.00 0.00
0.02 0.02 0.02 0.02 0.02 0.01 0.01 0.01 0.01 0.01 0.01 0.01 0.01 0.01 0.02 0.02 0.01 0.01 0.01 0.01 0.01 0.01 0.01 0.01 0.02 0.02 0.02 0.01 0.01 0.01 0.01 0.02 0.02 0.02 0.01 0.01 0.00 0.00
0.02 0.03 0.03 0.02 0.02 0.02 0.02 0.01 0.01 0.01 0.01 0.01 0.01 0.01 0.01 0.02 0.02 0.02 0.01 0.01 0.01 0.01 0.01 0.01 0.01 0.01 0.01 0.01 0.02 0.01 0.01 0.02 0.02 0.02 0.01 0.01 0.01 0.01
0.02 0.02 0.03 0.03 0.02 0.02 0.02 0.01 0.01 0.01 0.01 0.01 0.01 0.01 0.01 0.02 0.02 0.02 0.02 0.02 0.02 0.02 0.02 0.02 0.01 0.01 0.01 0.01 0.02 0.01 0.01 0.02 0.02 0.01 0.01 0.01 0.02 0.01
MSLP
1024.07 1024.23 1024.39 1024.54 1024.68 1024.80 1024.90 1025.00 1025.11 1025.24 1025.39 1025.55 1025.72 1025.87 1025.97 1026.02 1026.01 1025.92 1025.80 1025.64 1025.49 1025.36 1025.26 1025.19 1025.15 1025.11 1025.04 1024.93 1024.74 1024.48 1024.15 1023.77 1023.34 1022.90 1022.46 1022.02 1021.59 1021.17
1024.30 1024.43 1024.56 1024.67 1024.76 1024.84 1024.92 1025.01 1025.13 1025.28 1025.47 1025.67 1025.88 1026.06 1026.19 1026.24 1026.21 1026.11 1025.95 1025.77 1025.59 1025.44 1025.33 1025.27 1025.24 1025.23 1025.19 1025.11 1024.96 1024.73 1024.42 1024.05 1023.62 1023.18 1022.72 1022.26 1021.82 1021.38
1024.52 1024.64 1024.74 1024.82 1024.88 1024.94 1025.01 1025.10 1025.24 1025.42 1025.65 1025.90 1026.15 1026.36 1026.51 1026.57 1026.54 1026.42 1026.24 1026.02 1025.81 1025.63 1025.50 1025.43 1025.39 1025.38 1025.36 1025.29 1025.15 1024.94 1024.65 1024.29 1023.87 1023.43 1022.97 1022.51 1022.05 1021.61
1024.71 1024.82 1024.91 1024.98 1025.04 1025.09 1025.16 1025.26 1025.42 1025.64 1025.90 1026.20 1026.49 1026.73 1026.91 1026.99 1026.96 1026.83 1026.63 1026.39 1026.15 1025.94 1025.78 1025.68 1025.63 1025.59 1025.56 1025.48 1025.35 1025.13 1024.84 1024.49 1024.08 1023.64 1023.18 1022.73 1022.28 1021.84
1024.82 1024.95 1025.05 1025.13 1025.19 1025.26 1025.34 1025.46 1025.65 1025.89 1026.19 1026.51 1026.83 1027.11 1027.31 1027.41 1027.40 1027.28 1027.08 1026.83 1026.58 1026.35 1026.16 1026.03 1025.94 1025.87 1025.80 1025.70 1025.53 1025.30 1025.00 1024.63 1024.22 1023.79 1023.34 1022.90 1022.46 1022.03
1024.86 1025.01 1025.13 1025.23 1025.32 1025.40 1025.50 1025.64 1025.84 1026.10 1026.42 1026.77 1027.11 1027.41 1027.64 1027.77 1027.78 1027.69 1027.52 1027.29 1027.04 1026.80 1026.60 1026.44 1026.31 1026.20 1026.08 1025.93 1025.72 1025.45 1025.12 1024.73 1024.31 1023.87 1023.43 1023.00 1022.58 1022.17
1024.81 1024.97 1025.12 1025.25 1025.36 1025.46 1025.58 1025.74 1025.95 1026.22 1026.54 1026.89 1027.25 1027.57 1027.82 1027.98 1028.04 1028.00 1027.86 1027.68 1027.46 1027.24 1027.04 1026.86 1026.71 1026.55 1026.38 1026.17 1025.90 1025.58 1025.20 1024.79 1024.34 1023.89 1023.45 1023.03 1022.63 1022.24
1024.66 1024.84 1025.01 1025.16 1025.29 1025.41 1025.54 1025.71 1025.92 1026.18 1026.50 1026.85 1027.21 1027.54 1027.82 1028.02 1028.13 1028.14 1028.08 1027.96 1027.79 1027.61 1027.44 1027.26 1027.08 1026.90 1026.67 1026.41 1026.08 1025.70 1025.28 1024.82 1024.35 1023.88 1023.44 1023.02 1022.63 1022.26
1024.45 1024.62 1024.79 1024.95 1025.09 1025.22 1025.36 1025.52 1025.73 1025.99 1026.29 1026.63 1026.99 1027.33 1027.64 1027.88 1028.04 1028.13 1028.14 1028.09 1028.00 1027.88 1027.74 1027.59 1027.41 1027.20 1026.94 1026.63 1026.26 1025.83 1025.35 1024.85 1024.35 1023.86 1023.41 1023.00 1022.62 1022.27
1024.19 1024.33 1024.48 1024.62 1024.76 1024.90 1025.04 1025.20 1025.40 1025.64 1025.94 1026.27 1026.62 1026.98 1027.31 1027.59 1027.81 1027.97 1028.06 1028.09 1028.08 1028.02 1027.94 1027.81 1027.65 1027.44 1027.17 1026.83 1026.42 1025.96 1025.45 1024.92 1024.39 1023.89 1023.43 1023.01 1022.63 1022.29
1023.90 1023.99 1024.10 1024.22 1024.35 1024.47 1024.61 1024.77 1024.97 1025.21 1025.50 1025.83 1026.18 1026.55 1026.90 1027.22 1027.49 1027.71 1027.87 1027.97 1028.03 1028.04 1028.01 1027.93 1027.80 1027.60 1027.34 1027.00 1026.58 1026.10 1025.58 1025.04 1024.50 1023.98 1023.51 1023.09 1022.71 1022.37
1023.60 1023.63 1023.70 1023.78 1023.88 1023.99 1024.13 1024.29 1024.49 1024.74 1025.03 1025.37 1025.73 1026.11 1026.48 1026.83 1027.14 1027.40 1027.61 1027.78 1027.89 1027.96 1027.97 1027.94 1027.84 1027.68 1027.44 1027.12 1026.71 1026.25 1025.74 1025.20 1024.66 1024.15 1023.67 1023.24 1022.86 1022.52
1023.32 1023.28 1023.29 1023.33 1023.40 1023.50 1023.63 1023.80 1024.01 1024.27 1024.58 1024.93 1025.31 1025.70 1026.09 1026.46 1026.79 1027.08 1027.33 1027.53 1027.68 1027.78 1027.84 1027.85 1027.79 1027.66 1027.46 1027.17 1026.81 1026.38 1025.89 1025.38 1024.86 1024.36 1023.89 1023.46 1023.07 1022.72
1023.05 1022.94 1022.89 1022.89 1022.93 1023.01 1023.14 1023.31 1023.54 1023.82 1024.15 1024.52 1024.92 1025.33 1025.73 1026.11 1026.46 1026.77 1027.03 1027.25 1027.42 1027.54 1027.63 1027.66 1027.64 1027.55 1027.39 1027.16 1026.84 1026.46 1026.02 1025.55 1025.06 1024.58 1024.12 1023.70 1023.30 1022.93
1022.78 1022.61 1022.51 1022.46 1022.46 1022.53 1022.65 1022.83 1023.07 1023.37 1023.73 1024.12 1024.54 1024.96 1025.38 1025.77 1026.13 1026.44 1026.71 1026.93 1027.11 1027.25 1027.36 1027.41 1027.42 1027.37 1027.25 1027.06 1026.80 1026.46 1026.08 1025.65 1025.21 1024.75 1024.31 1023.89 1023.49 1023.11
1022.48 1022.27 1022.11 1022.02 1021.99 1022.02 1022.13 1022.31 1022.56 1022.88 1023.25 1023.66 1024.10 1024.55 1024.98 1025.38 1025.75 1026.07 1026.35 1026.58 1026.77 1026.92 1027.04 1027.11 1027.14 1027.12 1027.04 1026.89 1026.67 1026.39 1026.05 1025.67 1025.26 1024.83 1024.41 1024.00 1023.60 1023.21
1022.14 1021.89 1021.68 1021.54 1021.47 1021.47 1021.56 1021.72 1021.97 1022.29 1022.67 1023.10 1023.56 1024.02 1024.48 1024.91 1025.30 1025.64 1025.93 1026.18 1026.39 1026.56 1026.69 1026.78 1026.83 1026.83 1026.78 1026.66 1026.47 1026.22 1025.92 1025.57 1025.20 1024.80 1024.39 1023.99 1023.59 1023.20
1021.72 1021.43 1021.19 1021.00 1020.88 1020.84 1020.88 1021.02 1021.24 1021.56 1021.94 1022.38 1022.86 1023.35 1023.84 1024.30 1024.73 1025.11 1025.44 1025.73 1025.97 1026.18 1026.33 1026.45 1026.52 1026.54 1026.49 1026.39 1026.22 1025.99 1025.71 1025.39 1025.03 1024.65 1024.26 1023.87 1023.48 1023.08
1021.22 1020.90 1020.61 1020.37 1020.19 1020.10 1020.10 1020.19 1020.39 1020.68 1021.05 1021.50 1021.99 1022.52 1023.04 1023.56 1024.04 1024.48 1024.88 1025.23 1025.53 1025.78 1025.98 1026.13 1026.22 1026.25 1026.21 1026.12 1025.95 1025.73 1025.46 1025.14 1024.80 1024.44 1024.06 1023.69 1023.30 1022.91
1020.62 1020.26 1019.93 1019.64 1019.41 1019.26 1019.20 1019.25 1019.41 1019.67 1020.03 1020.48 1020.99 1021.55 1022.12 1022.70 1023.26 1023.78 1024.26 1024.69 1025.07 1025.38 1025.64 1025.82 1025.94 1025.99 1025.96 1025.86 1025.69 1025.47 1025.20 1024.89 1024.55 1024.20 1023.85 1023.49 1023.12 1022.75
1019.92 1019.53 1019.16 1018.82 1018.54 1018.33 1018.22 1018.22 1018.34 1018.58 1018.92 1019.37 1019.90 1020.49 1021.12 1021.77 1022.40 1023.02 1023.60 1024.12 1024.58 1024.98 1025.30 1025.53 1025.68 1025.75 1025.73 1025.63 1025.46 1025.23 1024.96 1024.66 1024.33 1024.00 1023.67 1023.34 1023.00 1022.66
1019.13 1018.70 1018.29 1017.92 1017.59 1017.34 1017.20 1017.16 1017.24 1017.46 1017.79 1018.25 1018.80 1019.42 1020.10 1020.82 1021.53 1022.24 1022.91 1023.53 1024.09 1024.56 1024.95 1025.24 1025.43 1025.52 1025.52 1025.42 1025.26 1025.03 1024.77 1024.48 1024.18 1023.88 1023.58 1023.29 1022.99 1022.68
1018.24 1017.79 1017.36 1016.95 1016.60 1016.33 1016.16 1016.10 1016.17 1016.37 1016.71 1017.17 1017.74 1018.40 1019.13 1019.90 1020.69 1021.47 1022.23 1022.94 1023.58 1024.13 1024.58 1024.93 1025.16 1025.29 1025.30 1025.23 1025.08 1024.87 1024.63 1024.37 1024.10 1023.84 1023.59 1023.35 1023.11 1022.85
Thickness
5666 5665 5663 5662 5661 5660 5658 5655 5649 5642 5639 5641 5642 5643 5643 5642 5641 5640 5639 5638 5636 5635 5633 5632 5631 5630 5629 5628 5627 5627 5626 5626 5625 5624 5624 5623 5623 5622
5663 5662 5661 5660 5659 5658 5656 5654 5652 5646 5639 5638 5639 5640 5639 5639 5637 5636 5634 5633 5631 5629 5628 5626 5625 5624 5623 5622 5621 5620 5620 5619 5618 5617 5616 5615 5614 5613
5661 5660 5658 5657 5655 5654 5653 5651 5649 5646 5639 5636 5636 5636 5636 5635 5633 5632 5630 5628 5626 5625 5623 5621 5619 5618 5617 5616 5615 5614 5613 5612 5611 5609 5608 5607 5606 5605
5658 5657 5655 5654 5652 5651 5649 5647 5645 5643 5639 5634 5632 5632 5631 5630 5629 5627 5625 5624 5622 5620 5618 5616 5614 5613 5611 5610 5609 5607 5606 5604 5603 5601 5600 5599 5597 5596
5656 5654 5652 5651 5648 5647 5645 5643 5641 5640 5637 5633 5630 5628 5627 5626 5623 5622 5620 5618 5617 5615 5613 5611 5609 5607 5606 5604 5602 5601 5599 5597 5595 5593 5591 5590 5588 5587
5653 5652 5650 5648 5646 5644 5642 5640 5637 5634 5632 5629 5626 5623 5622 5620 5618 5615 5613 5612 5610 5609 5608 5606 5604 5602 5600 5598 5596 5594 5592 5590 5587 5585 5583 5581 5580 5578
5650 5648 5647 5646 5645 5643 5640 5636 5634 5630 5626 5623 5620 5618 5616 5614 5612 5611 5609 5606 5604 5603 5602 5600 5598 5596 5593 5591 5589 5587 5585 5582 5580 5578 5576 5574 5572 5570
5645 5644 5643 5642 5641 5639 5637 5635 5632 5628 5623 5619 5616 5613 5612 5611 5609 5607 5604 5601 5598 5598 5596 5593 5592 5589 5587 5585 5583 5581 5579 5576 5574 5571 5569 5566 5564 5562
5641 5640 5639 5638 5636 5634 5632 5630 5628 5626 5624 5619 5614 5611 5609 5608 5606 5604 5600 5597 5595 5594 5590 5587 5585 5583 5581 5579 5577 5575 5572 5569 5567 5564 5562 5559 5557 5555
5637 5635 5634 5632 5631 5628 5626 5624 5621 5620 5618 5616 5614 5611 5609 5607 5605 5602 5599 5594 5591 5588 5585 5581 5579 5576 5576 5573 5571 5568 5565 5563 5560 5557 5554 5552 5550 5547
5633 5631 5630 5628 5627 5624 5621 5618 5615 5614 5613 5612 5610 5608 5606 5603 5601 5597 5592 5588 5583 5581 5579 5575 5572 5569 5568 5567 5565 5562 5559 5556 5553 5550 5547 5545 5543 5540
5627 5626 5626 5624 5622 5620 5616 5613 5610 5608 5607 5605 5603 5602 5599 5597 5595 5592 5588 5582 5578 5574 5573 5569 5565 5562 5560 5560 5558 5555 5552 5549 5546 5543 5540 5538 5535 5532
5621 5620 5620 5620 5618 5616 5613 5610 5608 5605 5602 5599 5596 5593 5591 5589 5587 5585 5582 5578 5573 5569 5568 5564 5559 5555 5551 5550 5549 5548 5545 5542 5539 5536 5533 5530 5527 5524
5618 5616 5615 5615 5613 5611 5608 5606 5604 5600 5596 5592 5589 5586 5583 5581 5580 5577 5575 5572 5569 5566 5563 5558 5553 5548 5544 5541 5539 5538 5537 5534 5531 5528 5525 5522 5519 5516
5614 5613 5611 5609 5607 5605 5603 5600 5597 5593 5589 5585 5582 5579 5578 5575 5573 5570 5567 5564 5561 5558 5555 5551 5547 5543 5538 5535 5532 5529 5527 5526 5523 5520 5517 5514 5511 5508
5607 5606 5604 5601 5599 5597 5595 5592 5589 5586 5583 5579 5576 5573 5570 5567 5564 5561 5557 5554 5551 5548 5546 5543 5539 5536 5531 5529 5525 5522 5520 5517 5515 5512 5509 5506 5503 5499
5599 5596 5593 5591 5588 5586 5584 5583 5580 5577 5574 5571 5568 5565 5562 5559 5556 5553 5549 5545 5541 5538 5535 5533 5530 5527 5525 5521 5517 5515 5512 5509 5506 5503 5499 5496 5494 5491
5591 5588 5585 5583 5580 5578 5576 5573 5571 5569 5566 5564 5561 5557 5554 5551 5547 5544 5540 5536 5532 5529 5526 5522 5519 5516 5514 5512 5510 5507 5503 5500 5497 5494 5490 5487 5486 5484
5583 5580 5577 5575 5573 5570 5568 5566 5563 5561 5558 5556 5553 5550 5546 5543 5539 5535 5531 5527 5524 5520 5517 5513 5508 5505 5502 5502 5502 5498 5493 5491 5487 5484 5481 5478 5476 5476
5574 5572 5569 5567 5564 5562 5560 5557 5555 5552 5549 5547 5544 5541 5538 5534 5530 5527 5522 5518 5515 5512 5508 5504 5500 5497 5494 5492 5490 5489 5485 5481 5477 5474 5472 5469 5468 5467
5565 5563 5561 5559 5556 5554 5551 5549 5546 5544 5541 5538 5535 5532 5529 5525 5522 5518 5514 5510 5506 5502 5499 5497 5494 5490 5485 5481 5479 5479 5476 5473 5469 5465 5462 5459 5457 5456
5558 5555 5553 5551 5548 5546 5543 5541 5538 5535 5532 5530 5527 5523 5520 5516 5513 5509 5505 5501 5497 5495 5492 5489 5485 5480 5475 5472 5471 5469 5467 5464 5461 5458 5455 5453 5448 5447
5549 5547 5544 5542 5539 5537 5535 5532 5529 5527 5524 5521 5518 5514 5510 5506 5503 5499 5496 5492 5489 5486 5482 5479 5474 5470 5467 5464 5461 5459 5457 5455 5453 5450 5448 5446 5443 5442